AFL1040 UUEE-URSS

Flight info

Callsign AFL1040
Flight time 3h 36m
Altitude 35000
Route TOGMO3J TOGMO M56 ABAGI B105 NIMTA/K0830F360 B105 NATIT/K0826F350 DCT MOLED/K0832F370 N50 LIDUS G242 ZG DCT ITAKA/K0841F360 DCT OBBUD DCT AMKOL DCT GOTIK DCT MEMZA DCT VENFO DCT BINOL BINOL1K
Aircraft B738/M-SDE2E3FGHIRWXY/LB1

Departure

Time 2026-05-07 07:16
Airport Sheremetyevo International Airport (UUEE)

Arrival

Time 2026-05-07 10:52
Airport Sochi International Airport (URSS)
Time Latitude Longitude Altitude Speed Heading
2026-05-07 07:00 55.97960 37.41610 638 ft 0 kts 76°
2026-05-07 07:08 55.97957 37.41589 640 ft 2 kts 76°
2026-05-07 07:08 55.97953 37.41561 638 ft 2 kts 76°
2026-05-07 07:08 55.97949 37.41533 643 ft 2 kts 76°
2026-05-07 07:08 55.97945 37.41505 642 ft 2 kts 76°
2026-05-07 07:09 55.97941 37.41477 639 ft 2 kts 90°
2026-05-07 07:09 55.97949 37.41453 640 ft 2 kts 162°
2026-05-07 07:09 55.97960 37.41448 641 ft 0 kts 165°
2026-05-07 07:12 55.97948 37.41454 640 ft 7 kts 165°
2026-05-07 07:12 55.97871 37.41489 640 ft 14 kts 165°
2026-05-07 07:12 55.97778 37.41534 638 ft 13 kts 165°
2026-05-07 07:12 55.97690 37.41576 640 ft 13 kts 165°
2026-05-07 07:13 55.97613 37.41644 640 ft 13 kts 113°
2026-05-07 07:13 55.97627 37.41799 638 ft 16 kts 75°
2026-05-07 07:13 55.97657 37.42002 639 ft 17 kts 75°
2026-05-07 07:13 55.97686 37.42198 638 ft 16 kts 75°
2026-05-07 07:14 55.97715 37.42389 639 ft 16 kts 75°
2026-05-07 07:14 55.97743 37.42574 638 ft 15 kts 75°
2026-05-07 07:14 55.97759 37.42751 642 ft 14 kts 110°
2026-05-07 07:14 55.97674 37.42823 637 ft 14 kts 165°
2026-05-07 07:15 55.97598 37.42778 641 ft 13 kts 248°
2026-05-07 07:15 55.97563 37.42561 639 ft 34 kts 255°
2026-05-07 07:15 55.97437 37.41717 635 ft 105 kts 255°
2026-05-07 07:15 55.97193 37.40099 640 ft 163 kts 253°
2026-05-07 07:16 55.96863 37.38015 1134 ft 173 kts 252°
2026-05-07 07:16 55.96491 37.36029 1986 ft 173 kts 238°
2026-05-07 07:16 55.95677 37.34406 2637 ft 181 kts 229°
2026-05-07 07:16 55.94853 37.32540 2842 ft 201 kts 233°
2026-05-07 07:17 55.94009 37.30485 3248 ft 207 kts 234°
2026-05-07 07:17 55.93171 37.28387 3874 ft 208 kts 235°
2026-05-07 07:17 55.92329 37.26247 4453 ft 213 kts 236°
2026-05-07 07:17 55.91481 37.24078 5081 ft 213 kts 236°
2026-05-07 07:18 55.90599 37.21926 5688 ft 217 kts 227°
2026-05-07 07:18 55.89286 37.20552 6328 ft 226 kts 198°
2026-05-07 07:18 55.87681 37.20477 6802 ft 244 kts 172°
2026-05-07 07:18 55.86082 37.21892 7021 ft 271 kts 149°
2026-05-07 07:19 55.84695 37.24222 6988 ft 279 kts 126°
2026-05-07 07:19 55.84085 37.27532 7008 ft 291 kts 94°
2026-05-07 07:19 55.84475 37.31072 7143 ft 306 kts 62°
2026-05-07 07:19 55.85709 37.34220 7764 ft 308 kts 49°
2026-05-07 07:20 55.87077 37.37103 8454 ft 309 kts 47°
2026-05-07 07:20 55.88483 37.40037 8953 ft 312 kts 48°
2026-05-07 07:20 55.89876 37.43003 8978 ft 311 kts 49°
2026-05-07 07:20 55.91253 37.45979 8999 ft 312 kts 49°
2026-05-07 07:21 55.92633 37.48990 8998 ft 313 kts 51°
2026-05-07 07:21 55.93609 37.52431 8980 ft 313 kts 79°
2026-05-07 07:21 55.93685 37.56290 9247 ft 313 kts 102°
2026-05-07 07:21 55.93271 37.60106 9922 ft 315 kts 104°
2026-05-07 07:22 55.92822 37.63936 10638 ft 315 kts 104°
2026-05-07 07:22 55.92381 37.67774 11313 ft 317 kts 104°
2026-05-07 07:22 55.91946 37.71638 12074 ft 318 kts 103°
2026-05-07 07:22 55.91366 37.75442 12731 ft 319 kts 118°
2026-05-07 07:23 55.90315 37.78939 13445 ft 321 kts 123°
2026-05-07 07:23 55.89193 37.82390 14096 ft 324 kts 124°
2026-05-07 07:23 55.88054 37.85893 14718 ft 328 kts 123°
2026-05-07 07:23 55.86915 37.89441 14977 ft 331 kts 123°
2026-05-07 07:24 55.85785 37.93008 14991 ft 330 kts 123°
2026-05-07 07:24 55.84660 37.96579 15005 ft 332 kts 123°
2026-05-07 07:24 55.83530 38.00180 15007 ft 333 kts 123°
2026-05-07 07:24 55.82402 38.03773 15011 ft 333 kts 123°
2026-05-07 07:25 55.80151 38.10992 15006 ft 335 kts 118°
2026-05-07 07:25 55.79590 38.15038 15006 ft 344 kts 94°
2026-05-07 07:25 55.79631 38.19374 15198 ft 360 kts 88°
2026-05-07 07:26 55.79772 38.23904 15677 ft 369 kts 87°
2026-05-07 07:26 55.79912 38.28402 16012 ft 371 kts 88°
2026-05-07 07:26 55.80031 38.33050 15995 ft 372 kts 89°
2026-05-07 07:26 55.80130 38.37584 16006 ft 371 kts 89°
2026-05-07 07:27 55.80337 38.42153 15989 ft 374 kts 77°
2026-05-07 07:27 55.81091 38.46624 16353 ft 380 kts 71°
2026-05-07 07:27 55.81947 38.51058 17143 ft 379 kts 70°
2026-05-07 07:27 55.82795 38.55513 17877 ft 381 kts 71°
2026-05-07 07:28 55.83630 38.60027 18447 ft 386 kts 71°
2026-05-07 07:28 55.84455 38.64606 18954 ft 389 kts 72°
2026-05-07 07:28 55.85272 38.69192 18986 ft 390 kts 72°
2026-05-07 07:28 55.86155 38.73765 19008 ft 392 kts 66°
2026-05-07 07:29 55.87302 38.78256 19123 ft 407 kts 63°
2026-05-07 07:29 55.88590 38.82863 19275 ft 421 kts 62°
2026-05-07 07:29 55.89915 38.87585 19690 ft 428 kts 62°
2026-05-07 07:29 55.91224 38.92353 20277 ft 430 kts 63°
2026-05-07 07:30 55.92515 38.97161 20838 ft 432 kts 63°
2026-05-07 07:30 55.93804 39.02028 21364 ft 435 kts 64°
2026-05-07 07:30 55.95095 39.06933 21876 ft 438 kts 64°
2026-05-07 07:30 55.96316 39.11927 22367 ft 441 kts 72°
2026-05-07 07:31 55.96836 39.17326 22841 ft 444 kts 86°
2026-05-07 07:31 55.97054 39.22830 23386 ft 445 kts 86°
2026-05-07 07:31 55.97279 39.28349 23819 ft 447 kts 86°
2026-05-07 07:31 55.97546 39.33915 24205 ft 450 kts 85°
2026-05-07 07:32 55.97618 39.39501 24556 ft 452 kts 100°
2026-05-07 07:32 55.96666 39.44793 24907 ft 448 kts 122°
2026-05-07 07:32 55.94759 39.49104 25343 ft 440 kts 141°
2026-05-07 07:32 55.92290 39.52243 25752 ft 434 kts 156°
2026-05-07 07:33 55.89491 39.54178 26104 ft 430 kts 170°
2026-05-07 07:33 55.86559 39.54912 26432 ft 425 kts 184°
2026-05-07 07:33 55.83647 39.54296 26803 ft 421 kts 194°
2026-05-07 07:33 55.80768 39.53246 27197 ft 422 kts 195°
2026-05-07 07:34 55.77896 39.52127 27540 ft 424 kts 196°
2026-05-07 07:34 55.75041 39.51005 27875 ft 426 kts 195°
2026-05-07 07:34 55.72103 39.49866 28198 ft 428 kts 195°
2026-05-07 07:34 55.69191 39.48758 28550 ft 429 kts 195°
2026-05-07 07:35 55.66293 39.47675 28832 ft 432 kts 194°
2026-05-07 07:35 55.63335 39.46583 29099 ft 435 kts 194°
2026-05-07 07:35 55.60370 39.45497 29414 ft 436 kts 194°
2026-05-07 07:35 55.57387 39.44410 29734 ft 438 kts 194°
2026-05-07 07:36 55.54393 39.43322 30026 ft 439 kts 194°
2026-05-07 07:36 55.51406 39.42238 30349 ft 438 kts 194°
2026-05-07 07:36 55.48420 39.41157 30743 ft 436 kts 194°
2026-05-07 07:36 55.45458 39.40086 31109 ft 434 kts 194°
2026-05-07 07:37 55.42493 39.39014 31433 ft 434 kts 194°
2026-05-07 07:37 55.39538 39.37946 31739 ft 434 kts 194°
2026-05-07 07:37 55.36587 39.36882 32046 ft 433 kts 194°
2026-05-07 07:37 55.33625 39.35815 32321 ft 434 kts 194°
2026-05-07 07:38 55.30664 39.34750 32636 ft 433 kts 194°
2026-05-07 07:38 55.27714 39.33691 32997 ft 431 kts 194°
2026-05-07 07:38 55.24783 39.32641 33325 ft 430 kts 194°
2026-05-07 07:38 55.21884 39.31603 33606 ft 430 kts 194°
2026-05-07 07:39 55.18915 39.30542 33819 ft 431 kts 194°
2026-05-07 07:39 55.15973 39.29491 34017 ft 432 kts 194°
2026-05-07 07:39 55.13061 39.28453 34266 ft 431 kts 194°
2026-05-07 07:39 55.10116 39.27406 34515 ft 431 kts 194°
2026-05-07 07:40 55.07180 39.26363 34709 ft 432 kts 194°
2026-05-07 07:40 55.04229 39.25316 34893 ft 432 kts 194°
2026-05-07 07:40 55.01271 39.24267 34917 ft 436 kts 194°
2026-05-07 07:41 54.95308 39.22160 34925 ft 436 kts 194°
2026-05-07 07:41 54.89396 39.20080 34920 ft 430 kts 194°
2026-05-07 07:42 54.83540 39.18022 34931 ft 429 kts 194°
2026-05-07 07:42 54.77690 39.15972 34926 ft 429 kts 193°
2026-05-07 07:43 54.71879 39.13942 34932 ft 429 kts 193°
2026-05-07 07:43 54.66015 39.11900 34928 ft 430 kts 193°
2026-05-07 07:44 54.60122 39.09854 34932 ft 433 kts 193°
2026-05-07 07:44 54.54192 39.07801 34928 ft 436 kts 193°
2026-05-07 07:45 54.48219 39.05739 34946 ft 438 kts 193°
2026-05-07 07:45 54.45235 39.04977 34906 ft 441 kts 181°
2026-05-07 07:45 54.42205 39.05783 34966 ft 445 kts 163°
2026-05-07 07:45 54.39408 39.08127 34934 ft 450 kts 146°
2026-05-07 07:46 54.37063 39.11721 34930 ft 455 kts 131°
2026-05-07 07:46 54.35378 39.16303 34956 ft 458 kts 115°
2026-05-07 07:46 54.34186 39.21386 34931 ft 460 kts 112°
2026-05-07 07:47 54.31864 39.31601 34929 ft 460 kts 113°
2026-05-07 07:47 54.29430 39.41677 34934 ft 460 kts 114°
2026-05-07 07:48 54.26957 39.51761 34934 ft 459 kts 114°
2026-05-07 07:48 54.24490 39.61814 34959 ft 458 kts 114°
2026-05-07 07:49 54.22028 39.71832 34953 ft 456 kts 114°
2026-05-07 07:49 54.19566 39.81812 34955 ft 455 kts 114°
2026-05-07 07:50 54.17101 39.91756 34944 ft 454 kts 114°
2026-05-07 07:50 54.14633 40.01671 34955 ft 453 kts 114°
2026-05-07 07:51 54.12160 40.11567 34945 ft 453 kts 114°
2026-05-07 07:51 54.10141 40.21681 34965 ft 454 kts 107°
2026-05-07 07:52 54.08420 40.32039 34962 ft 454 kts 107°
2026-05-07 07:52 54.06671 40.42382 34963 ft 454 kts 107°
2026-05-07 07:53 54.04868 40.52699 34963 ft 455 kts 108°
2026-05-07 07:53 54.03349 40.61274 34969 ft 455 kts 108°
2026-05-07 07:54 54.01517 40.71561 34956 ft 455 kts 108°
2026-05-07 07:54 53.99675 40.81857 34965 ft 455 kts 108°
2026-05-07 07:55 53.97822 40.92163 34969 ft 455 kts 108°
2026-05-07 07:55 53.95977 41.02372 34972 ft 455 kts 108°
2026-05-07 07:56 53.94210 41.12704 34969 ft 455 kts 106°
2026-05-07 07:56 53.92552 41.23063 34969 ft 454 kts 106°
2026-05-07 07:57 53.90879 41.33395 34973 ft 454 kts 106°
2026-05-07 07:57 53.89182 41.43697 34972 ft 453 kts 106°
2026-05-07 07:58 53.87473 41.53974 34963 ft 453 kts 107°
2026-05-07 07:58 53.85759 41.64233 34973 ft 452 kts 107°
2026-05-07 07:59 53.84039 41.74475 34966 ft 452 kts 107°
2026-05-07 07:59 53.82307 41.84622 34972 ft 451 kts 107°
2026-05-07 08:00 53.80546 41.94815 34968 ft 451 kts 107°
2026-05-07 08:00 53.78781 42.04994 34968 ft 451 kts 107°
2026-05-07 08:01 53.77010 42.15158 34971 ft 450 kts 107°
2026-05-07 08:01 53.75231 42.25311 34965 ft 450 kts 107°
2026-05-07 08:02 53.73445 42.35455 34971 ft 450 kts 107°
2026-05-07 08:02 53.71651 42.45586 34968 ft 450 kts 107°
2026-05-07 08:03 53.69850 42.55708 34968 ft 450 kts 107°
2026-05-07 08:03 53.67516 42.65346 34958 ft 447 kts 129°
2026-05-07 08:03 53.65327 42.69044 34955 ft 445 kts 144°
2026-05-07 08:04 53.62641 42.71612 34985 ft 443 kts 157°
2026-05-07 08:04 53.56951 42.75648 34976 ft 444 kts 158°
2026-05-07 08:05 53.51226 42.79625 34958 ft 446 kts 158°
2026-05-07 08:05 53.45502 42.83686 34956 ft 447 kts 157°
2026-05-07 08:06 53.39783 42.87781 34961 ft 448 kts 157°
2026-05-07 08:06 53.34043 42.91887 34962 ft 449 kts 157°
2026-05-07 08:07 53.28289 42.95987 34962 ft 450 kts 157°
2026-05-07 08:07 53.22554 43.00061 34962 ft 450 kts 157°
2026-05-07 08:08 53.16784 43.04149 34954 ft 451 kts 157°
2026-05-07 08:08 53.11016 43.08261 34964 ft 451 kts 156°
2026-05-07 08:09 53.05282 43.12527 34952 ft 452 kts 156°
2026-05-07 08:09 52.99550 43.16817 34967 ft 452 kts 156°
2026-05-07 08:10 52.93846 43.21055 34962 ft 452 kts 156°
2026-05-07 08:10 52.88097 43.25301 34958 ft 452 kts 156°
2026-05-07 08:11 52.82342 43.29534 34961 ft 452 kts 156°
2026-05-07 08:11 52.76582 43.33757 34962 ft 453 kts 156°
2026-05-07 08:12 52.70816 43.37974 34957 ft 453 kts 156°
2026-05-07 08:12 52.65045 43.42182 34956 ft 453 kts 156°
2026-05-07 08:13 52.59274 43.46378 34960 ft 453 kts 156°
2026-05-07 08:13 52.53499 43.50565 34951 ft 453 kts 156°
2026-05-07 08:14 52.47762 43.54712 34947 ft 454 kts 156°
2026-05-07 08:14 52.41982 43.58879 34953 ft 454 kts 156°
2026-05-07 08:15 52.36198 43.63036 34954 ft 454 kts 156°
2026-05-07 08:15 52.30412 43.67183 34951 ft 454 kts 156°
2026-05-07 08:16 52.24634 43.71312 34948 ft 454 kts 156°
2026-05-07 08:16 52.18845 43.75438 34951 ft 454 kts 156°
2026-05-07 08:17 52.13044 43.79560 34944 ft 454 kts 156°
2026-05-07 08:17 52.07290 43.83637 34949 ft 454 kts 156°
2026-05-07 08:18 52.01498 43.87729 34955 ft 454 kts 155°
2026-05-07 08:18 51.95706 43.91810 34951 ft 454 kts 155°
2026-05-07 08:19 51.89913 43.95880 34941 ft 453 kts 155°
2026-05-07 08:19 51.84124 43.99937 34950 ft 453 kts 156°
2026-05-07 08:20 51.78334 44.03982 34953 ft 453 kts 155°
2026-05-07 08:20 51.72581 44.07990 34948 ft 453 kts 155°
2026-05-07 08:21 51.66789 44.12014 34942 ft 453 kts 155°
2026-05-07 08:21 51.60994 44.16029 34937 ft 453 kts 155°
2026-05-07 08:22 51.55189 44.20040 34955 ft 453 kts 155°
2026-05-07 08:22 51.49400 44.24029 34935 ft 453 kts 155°
2026-05-07 08:23 51.43599 44.28014 34942 ft 453 kts 155°
2026-05-07 08:23 51.37824 44.31972 34950 ft 454 kts 155°
2026-05-07 08:24 51.32024 44.35935 34949 ft 454 kts 155°
2026-05-07 08:24 51.26199 44.39906 34937 ft 455 kts 155°
2026-05-07 08:25 51.20387 44.43857 34943 ft 455 kts 155°
2026-05-07 08:25 51.14280 44.46499 34943 ft 458 kts 173°
2026-05-07 08:26 51.04707 44.45995 34946 ft 460 kts 183°
2026-05-07 08:26 50.98311 44.45289 34945 ft 461 kts 182°
2026-05-07 08:27 50.91936 44.44649 34942 ft 461 kts 182°
2026-05-07 08:27 50.85525 44.44046 34943 ft 461 kts 182°
2026-05-07 08:28 50.79112 44.43454 34944 ft 461 kts 182°
2026-05-07 08:28 50.72690 44.42861 34946 ft 461 kts 182°
2026-05-07 08:29 50.66291 44.42271 34952 ft 461 kts 182°
2026-05-07 08:29 50.59872 44.41680 34947 ft 461 kts 182°
2026-05-07 08:30 50.53475 44.41092 34941 ft 461 kts 182°
2026-05-07 08:30 50.47106 44.40509 34952 ft 460 kts 182°
2026-05-07 08:31 50.40709 44.39924 34947 ft 460 kts 182°
2026-05-07 08:31 50.34317 44.39342 34949 ft 460 kts 182°
2026-05-07 08:32 50.27928 44.38762 34947 ft 459 kts 182°
2026-05-07 08:32 50.21589 44.38187 34945 ft 459 kts 182°
2026-05-07 08:33 50.15197 44.37609 34947 ft 459 kts 182°
2026-05-07 08:33 50.08819 44.37034 34950 ft 459 kts 182°
2026-05-07 08:34 50.02426 44.36459 34950 ft 459 kts 182°
2026-05-07 08:34 49.96080 44.35890 34942 ft 460 kts 183°
2026-05-07 08:35 49.89679 44.35318 34942 ft 461 kts 183°
2026-05-07 08:35 49.83269 44.34746 34944 ft 461 kts 183°
2026-05-07 08:36 49.76851 44.34175 34946 ft 462 kts 183°
2026-05-07 08:36 49.70430 44.33605 34935 ft 462 kts 183°
2026-05-07 08:37 49.64006 44.33037 34944 ft 462 kts 183°
2026-05-07 08:37 49.57589 44.32963 34939 ft 461 kts 171°
2026-05-07 08:38 49.51448 44.35596 34950 ft 458 kts 156°
2026-05-07 08:38 49.45574 44.39436 34938 ft 459 kts 155°
2026-05-07 08:39 49.39732 44.43244 34954 ft 459 kts 156°
2026-05-07 08:39 49.33832 44.47013 34943 ft 459 kts 156°
2026-05-07 08:40 49.27912 44.50755 34948 ft 459 kts 156°
2026-05-07 08:40 49.21999 44.54480 34945 ft 459 kts 156°
2026-05-07 08:41 49.16072 44.58206 34944 ft 460 kts 156°
2026-05-07 08:41 49.10196 44.61892 34937 ft 460 kts 156°
2026-05-07 08:42 49.04279 44.65594 34947 ft 459 kts 156°
2026-05-07 08:42 48.98367 44.69284 34936 ft 459 kts 156°
2026-05-07 08:43 48.92448 44.72970 34953 ft 458 kts 156°
2026-05-07 08:43 48.86544 44.76636 34944 ft 458 kts 156°
2026-05-07 08:44 48.81057 44.81293 34939 ft 454 kts 140°
2026-05-07 08:44 48.76117 44.87264 34936 ft 454 kts 140°
2026-05-07 08:45 48.71984 44.92257 34933 ft 454 kts 140°
2026-05-07 08:45 48.67044 44.98136 34936 ft 454 kts 140°
2026-05-07 08:46 48.62061 45.04008 34935 ft 454 kts 141°
2026-05-07 08:46 48.57074 45.09867 34930 ft 454 kts 140°
2026-05-07 08:47 48.52084 45.15718 34942 ft 454 kts 140°
2026-05-07 08:47 48.47092 45.21560 34932 ft 454 kts 140°
2026-05-07 08:48 48.42088 45.27399 34933 ft 454 kts 141°
2026-05-07 08:48 48.36716 45.32388 34937 ft 453 kts 152°
2026-05-07 08:49 48.31094 45.36428 34930 ft 449 kts 153°
2026-05-07 08:49 48.25475 45.40453 34923 ft 446 kts 153°
2026-05-07 08:50 48.19897 45.44503 34928 ft 445 kts 152°
2026-05-07 08:50 48.14347 45.48554 34925 ft 444 kts 152°
2026-05-07 08:51 48.08783 45.52612 34935 ft 445 kts 152°
2026-05-07 08:51 48.03208 45.56668 34936 ft 447 kts 152°
2026-05-07 08:52 47.97596 45.60738 34931 ft 449 kts 152°
2026-05-07 08:52 47.91958 45.64818 34923 ft 451 kts 152°
2026-05-07 08:53 47.86333 45.68877 34934 ft 453 kts 152°
2026-05-07 08:53 47.80650 45.72968 34926 ft 454 kts 152°
2026-05-07 08:54 47.74956 45.77058 34922 ft 454 kts 152°
2026-05-07 08:54 47.69261 45.81138 34921 ft 454 kts 152°
2026-05-07 08:55 47.63579 45.85199 34932 ft 453 kts 152°
2026-05-07 08:55 47.57898 45.89250 34920 ft 452 kts 152°
2026-05-07 08:56 47.52222 45.93287 34922 ft 451 kts 152°
2026-05-07 08:56 47.46572 45.97297 34925 ft 450 kts 152°
2026-05-07 08:57 47.40935 46.01289 34922 ft 448 kts 152°
2026-05-07 08:57 47.35348 46.05236 34923 ft 448 kts 152°
2026-05-07 08:58 47.29743 46.09193 34924 ft 447 kts 152°
2026-05-07 08:58 47.24125 46.13152 34938 ft 446 kts 152°
2026-05-07 08:59 47.18509 46.17100 34927 ft 446 kts 152°
2026-05-07 08:59 47.12913 46.21026 34925 ft 446 kts 152°
2026-05-07 09:00 47.07358 46.25090 34920 ft 444 kts 144°
2026-05-07 09:00 47.02852 46.31091 34937 ft 437 kts 125°
2026-05-07 09:01 46.99555 46.38540 34932 ft 436 kts 119°
2026-05-07 09:01 46.96370 46.46037 34926 ft 437 kts 120°
2026-05-07 09:02 46.93116 46.53580 34931 ft 438 kts 120°
2026-05-07 09:02 46.89835 46.61101 34933 ft 439 kts 120°
2026-05-07 09:03 46.86559 46.68575 34924 ft 440 kts 120°
2026-05-07 09:03 46.83249 46.76108 34919 ft 441 kts 121°
2026-05-07 09:04 46.79930 46.83643 34917 ft 441 kts 121°
2026-05-07 09:04 46.76602 46.91178 34919 ft 442 kts 120°
2026-05-07 09:05 46.73268 46.98711 34916 ft 442 kts 121°
2026-05-07 09:05 46.69947 47.06191 34920 ft 442 kts 121°
2026-05-07 09:06 46.66629 47.13739 34910 ft 442 kts 120°
2026-05-07 09:06 46.63339 47.21303 34914 ft 442 kts 120°
2026-05-07 09:07 46.60045 47.28857 34914 ft 442 kts 120°
2026-05-07 09:07 46.56761 47.36355 34912 ft 442 kts 120°
2026-05-07 09:08 46.53455 47.43875 34916 ft 441 kts 121°
2026-05-07 09:08 46.50148 47.51377 34915 ft 441 kts 121°
2026-05-07 09:09 46.46839 47.58865 34921 ft 440 kts 121°
2026-05-07 09:09 46.43522 47.66348 34905 ft 440 kts 121°
2026-05-07 09:10 46.40231 47.73755 34923 ft 440 kts 121°
2026-05-07 09:10 46.36916 47.81199 34918 ft 439 kts 121°
2026-05-07 09:11 46.33599 47.88628 34916 ft 439 kts 122°
2026-05-07 09:11 46.30276 47.96049 34913 ft 439 kts 122°
2026-05-07 09:12 46.27587 48.03928 34916 ft 437 kts 105°
2026-05-07 09:12 46.26263 48.12432 34917 ft 437 kts 101°
2026-05-07 09:13 46.25019 48.21037 34906 ft 438 kts 102°
2026-05-07 09:13 46.23721 48.29646 34913 ft 439 kts 102°
2026-05-07 09:14 46.22392 48.38275 34919 ft 440 kts 102°
2026-05-07 09:14 46.21053 48.46926 34916 ft 442 kts 102°
2026-05-07 09:15 46.19347 48.55431 34885 ft 443 kts 121°
2026-05-07 09:15 46.17464 48.58863 34917 ft 443 kts 137°
2026-05-07 09:15 46.14979 48.61501 34920 ft 444 kts 152°
2026-05-07 09:16 46.12110 48.63101 34934 ft 443 kts 163°
2026-05-07 09:16 46.09131 48.64310 34905 ft 445 kts 165°
2026-05-07 09:16 46.03143 48.66596 34920 ft 445 kts 165°
2026-05-07 09:17 45.97149 48.68914 34925 ft 446 kts 165°
2026-05-07 09:17 45.91170 48.71283 34926 ft 446 kts 164°
2026-05-07 09:18 45.85223 48.73661 34931 ft 446 kts 164°
2026-05-07 09:18 45.79230 48.76057 34933 ft 446 kts 164°
2026-05-07 09:19 45.73256 48.78439 34925 ft 445 kts 164°
2026-05-07 09:19 45.67293 48.80810 34944 ft 444 kts 165°
2026-05-07 09:20 45.61380 48.83155 34940 ft 443 kts 165°
2026-05-07 09:20 45.55441 48.85506 34947 ft 442 kts 165°
2026-05-07 09:21 45.49501 48.87852 34945 ft 442 kts 166°
2026-05-07 09:21 45.43585 48.90183 34963 ft 440 kts 166°
2026-05-07 09:22 45.37718 48.92490 34958 ft 440 kts 166°
2026-05-07 09:22 45.31821 48.94804 34953 ft 439 kts 165°
2026-05-07 09:23 45.25926 48.97112 34965 ft 439 kts 166°
2026-05-07 09:23 45.20036 48.99412 34973 ft 439 kts 167°
2026-05-07 09:24 45.14188 49.01693 34957 ft 439 kts 166°
2026-05-07 09:24 45.08302 49.03982 34974 ft 438 kts 167°
2026-05-07 09:25 45.02421 49.06265 34977 ft 438 kts 167°
2026-05-07 09:25 44.96547 49.08541 34975 ft 437 kts 167°
2026-05-07 09:26 44.90676 49.10810 34986 ft 437 kts 167°
2026-05-07 09:26 44.84844 49.13059 34974 ft 437 kts 167°
2026-05-07 09:27 44.78963 49.15322 34987 ft 437 kts 167°
2026-05-07 09:28 44.70157 49.18703 34990 ft 438 kts 167°
2026-05-07 09:28 44.64314 49.20940 34999 ft 438 kts 167°
2026-05-07 09:29 44.58426 49.23190 35003 ft 438 kts 168°
2026-05-07 09:29 44.52533 49.25436 35002 ft 439 kts 168°
2026-05-07 09:30 44.46636 49.27680 35007 ft 439 kts 168°
2026-05-07 09:30 44.40738 49.29920 35009 ft 439 kts 168°
2026-05-07 09:31 44.34843 49.32153 35020 ft 438 kts 169°
2026-05-07 09:31 44.28985 49.34368 35012 ft 438 kts 169°
2026-05-07 09:32 44.23119 49.36582 35017 ft 437 kts 169°
2026-05-07 09:32 44.17260 49.38789 35023 ft 435 kts 169°
2026-05-07 09:33 44.11414 49.40986 35021 ft 433 kts 169°
2026-05-07 09:33 44.05588 49.43171 35028 ft 432 kts 169°
2026-05-07 09:34 43.99829 49.45326 35012 ft 431 kts 169°
2026-05-07 09:34 43.94028 49.46177 35041 ft 413 kts 196°
2026-05-07 09:34 43.91346 49.44904 35035 ft 406 kts 210°
2026-05-07 09:35 43.89026 49.42733 35045 ft 402 kts 224°
2026-05-07 09:35 43.87172 49.39840 35047 ft 401 kts 236°
2026-05-07 09:35 43.85830 49.36462 35033 ft 403 kts 249°
2026-05-07 09:36 43.84655 49.28883 35040 ft 407 kts 258°
2026-05-07 09:36 43.83793 49.21110 35035 ft 409 kts 259°
2026-05-07 09:37 43.82898 49.13298 35039 ft 411 kts 258°
2026-05-07 09:37 43.81958 49.05459 35038 ft 413 kts 258°
2026-05-07 09:38 43.81001 48.97633 35045 ft 415 kts 258°
2026-05-07 09:38 43.80028 48.89738 35042 ft 417 kts 258°
2026-05-07 09:39 43.79049 48.81836 35038 ft 417 kts 258°
2026-05-07 09:39 43.78060 48.73897 35037 ft 418 kts 258°
2026-05-07 09:40 43.77069 48.65983 35035 ft 418 kts 258°
2026-05-07 09:40 43.76070 48.58044 35034 ft 418 kts 258°
2026-05-07 09:41 43.75070 48.50194 35034 ft 417 kts 258°
2026-05-07 09:41 43.74054 48.42280 35034 ft 417 kts 258°
2026-05-07 09:42 43.73036 48.34394 35035 ft 416 kts 258°
2026-05-07 09:42 43.72017 48.26535 35035 ft 416 kts 258°
2026-05-07 09:43 43.70998 48.18714 35043 ft 415 kts 258°
2026-05-07 09:43 43.69967 48.10852 35036 ft 416 kts 258°
2026-05-07 09:44 43.68931 48.02988 35044 ft 416 kts 258°
2026-05-07 09:44 43.67888 47.95117 35035 ft 417 kts 258°
2026-05-07 09:45 43.66843 47.87277 35031 ft 417 kts 257°
2026-05-07 09:45 43.65787 47.79391 35035 ft 418 kts 257°
2026-05-07 09:46 43.64723 47.71498 35040 ft 418 kts 257°
2026-05-07 09:46 43.63834 47.64924 35037 ft 419 kts 257°
2026-05-07 09:47 43.62759 47.57019 35040 ft 419 kts 257°
2026-05-07 09:47 43.61702 47.49105 35040 ft 420 kts 259°
2026-05-07 09:48 43.60999 47.41136 35046 ft 421 kts 262°
2026-05-07 09:48 43.60379 47.33096 35048 ft 421 kts 262°
2026-05-07 09:49 43.59737 47.25053 35051 ft 422 kts 261°
2026-05-07 09:49 43.59071 47.17005 35048 ft 422 kts 261°
2026-05-07 09:50 43.58397 47.09008 35058 ft 422 kts 261°
2026-05-07 09:50 43.57710 47.00954 35054 ft 423 kts 261°
2026-05-07 09:51 43.57017 46.92887 35055 ft 423 kts 261°
2026-05-07 09:51 43.56320 46.84835 35056 ft 423 kts 261°
2026-05-07 09:52 43.55621 46.76837 35070 ft 423 kts 261°
2026-05-07 09:52 43.54912 46.68777 35065 ft 424 kts 261°
2026-05-07 09:53 43.54196 46.60708 35065 ft 424 kts 261°
2026-05-07 09:53 43.53472 46.52620 35063 ft 424 kts 261°
2026-05-07 09:54 43.52748 46.44597 35073 ft 425 kts 261°
2026-05-07 09:54 43.52014 46.36519 35069 ft 425 kts 261°
2026-05-07 09:55 43.51274 46.28441 35075 ft 425 kts 261°
2026-05-07 09:55 43.50529 46.20375 35077 ft 425 kts 261°
2026-05-07 09:56 43.49782 46.12337 35069 ft 425 kts 261°
2026-05-07 09:56 43.49103 46.04237 35070 ft 427 kts 266°
2026-05-07 09:57 43.49573 45.96062 35086 ft 430 kts 275°
2026-05-07 09:57 43.50302 45.87883 35104 ft 430 kts 275°
2026-05-07 09:58 43.51005 45.79696 35100 ft 431 kts 274°
2026-05-07 09:58 43.51684 45.71476 35107 ft 432 kts 274°
2026-05-07 09:59 43.52349 45.63237 35104 ft 433 kts 274°
2026-05-07 09:59 43.53005 45.55032 35102 ft 434 kts 274°
2026-05-07 10:00 43.53662 45.46742 35095 ft 435 kts 274°
2026-05-07 10:00 43.54313 45.38454 35094 ft 435 kts 274°
2026-05-07 10:01 43.54958 45.30157 35095 ft 435 kts 274°
2026-05-07 10:01 43.55595 45.21899 35111 ft 435 kts 274°
2026-05-07 10:02 43.56229 45.13590 35104 ft 436 kts 275°
2026-05-07 10:02 43.56858 45.05269 35116 ft 436 kts 274°
2026-05-07 10:03 43.57481 44.96938 35113 ft 437 kts 274°
2026-05-07 10:03 43.58099 44.88597 35119 ft 437 kts 274°
2026-05-07 10:04 43.58707 44.80309 35126 ft 437 kts 274°
2026-05-07 10:04 43.59315 44.71937 35118 ft 438 kts 274°
2026-05-07 10:05 43.59916 44.63573 35140 ft 439 kts 274°
2026-05-07 10:05 43.60513 44.55184 35125 ft 440 kts 275°
2026-05-07 10:06 43.61105 44.46776 35126 ft 441 kts 274°
2026-05-07 10:06 43.61692 44.38351 35121 ft 441 kts 274°
2026-05-07 10:07 43.62273 44.29910 35115 ft 442 kts 275°
2026-05-07 10:07 43.62850 44.21460 35116 ft 443 kts 275°
2026-05-07 10:08 43.63422 44.12977 35116 ft 444 kts 274°
2026-05-07 10:08 43.63774 44.04453 35132 ft 445 kts 271°
2026-05-07 10:09 43.63969 43.95900 35108 ft 446 kts 271°
2026-05-07 10:09 43.64172 43.87343 35108 ft 447 kts 271°
2026-05-07 10:10 43.64398 43.78746 35099 ft 447 kts 271°
2026-05-07 10:10 43.64629 43.70177 35107 ft 446 kts 271°
2026-05-07 10:11 43.64855 43.61672 35109 ft 445 kts 271°
2026-05-07 10:11 43.65074 43.53144 35110 ft 444 kts 271°
2026-05-07 10:12 43.65286 43.44636 35120 ft 443 kts 271°
2026-05-07 10:12 43.65491 43.36143 35125 ft 442 kts 271°
2026-05-07 10:13 43.65690 43.27635 35135 ft 444 kts 271°
2026-05-07 10:13 43.65882 43.19158 35144 ft 445 kts 271°
2026-05-07 10:14 43.66069 43.10600 35139 ft 446 kts 271°
2026-05-07 10:14 43.66251 43.02013 35151 ft 448 kts 271°
2026-05-07 10:15 43.66427 42.93403 35151 ft 449 kts 271°
2026-05-07 10:15 43.66595 42.84811 35160 ft 451 kts 271°
2026-05-07 10:16 43.66759 42.76138 35160 ft 452 kts 271°
2026-05-07 10:16 43.66918 42.67421 35159 ft 454 kts 271°
2026-05-07 10:17 43.67069 42.58702 35160 ft 454 kts 271°
2026-05-07 10:17 43.67214 42.49963 35158 ft 455 kts 271°
2026-05-07 10:18 43.67352 42.41278 35152 ft 455 kts 271°
2026-05-07 10:18 43.67484 42.32529 35154 ft 456 kts 271°
2026-05-07 10:19 43.67610 42.23780 35167 ft 455 kts 271°
2026-05-07 10:19 43.67728 42.15032 35152 ft 455 kts 271°
2026-05-07 10:20 43.67840 42.06282 35159 ft 455 kts 271°
2026-05-07 10:20 43.67945 41.97596 35152 ft 455 kts 271°
2026-05-07 10:21 43.68044 41.88854 35152 ft 455 kts 271°
2026-05-07 10:21 43.68136 41.80109 35161 ft 455 kts 271°
2026-05-07 10:22 43.68221 41.71356 35159 ft 456 kts 271°
2026-05-07 10:22 43.68300 41.62601 35159 ft 456 kts 271°
2026-05-07 10:23 43.68372 41.53887 35163 ft 456 kts 271°
2026-05-07 10:23 43.68406 41.49485 34851 ft 461 kts 271°
2026-05-07 10:23 43.68438 41.45072 34455 ft 457 kts 271°
2026-05-07 10:23 43.68467 41.40692 33978 ft 454 kts 271°
2026-05-07 10:24 43.68495 41.36355 33489 ft 450 kts 271°
2026-05-07 10:24 43.68522 41.32041 33037 ft 446 kts 271°
2026-05-07 10:24 43.68546 41.27775 32589 ft 443 kts 271°
2026-05-07 10:24 43.68569 41.23529 32166 ft 439 kts 271°
2026-05-07 10:25 43.68590 41.19330 31737 ft 436 kts 272°
2026-05-07 10:25 43.68610 41.15151 31321 ft 433 kts 272°
2026-05-07 10:25 43.68628 41.11014 30900 ft 430 kts 272°
2026-05-07 10:25 43.68644 41.06943 30511 ft 427 kts 272°
2026-05-07 10:26 43.68659 41.02798 30072 ft 425 kts 272°
2026-05-07 10:26 43.68673 40.98771 29596 ft 423 kts 272°
2026-05-07 10:26 43.68686 40.94719 29133 ft 419 kts 272°
2026-05-07 10:26 43.68696 40.90724 28730 ft 414 kts 271°
2026-05-07 10:27 43.68706 40.86750 28234 ft 412 kts 272°
2026-05-07 10:27 43.68721 40.82814 27771 ft 408 kts 272°
2026-05-07 10:27 43.68736 40.78901 27366 ft 405 kts 272°
2026-05-07 10:27 43.68752 40.75031 26945 ft 402 kts 272°
2026-05-07 10:28 43.68765 40.71189 26543 ft 399 kts 271°
2026-05-07 10:28 43.68776 40.67364 26143 ft 396 kts 271°
2026-05-07 10:28 43.68787 40.63587 25762 ft 392 kts 271°
2026-05-07 10:28 43.68797 40.59875 25388 ft 389 kts 271°
2026-05-07 10:29 43.68804 40.56105 24989 ft 386 kts 271°
2026-05-07 10:29 43.68811 40.52411 24623 ft 384 kts 271°
2026-05-07 10:29 43.68816 40.48776 24234 ft 382 kts 271°
2026-05-07 10:30 43.68822 40.41497 23420 ft 376 kts 271°
2026-05-07 10:30 43.68823 40.37905 23010 ft 373 kts 271°
2026-05-07 10:30 43.68824 40.34336 22635 ft 369 kts 271°
2026-05-07 10:30 43.68823 40.30819 22257 ft 364 kts 271°
2026-05-07 10:31 43.68822 40.27331 21880 ft 361 kts 271°
2026-05-07 10:31 43.68820 40.23875 21503 ft 357 kts 271°
2026-05-07 10:31 43.68816 40.20449 21135 ft 355 kts 271°
2026-05-07 10:31 43.68811 40.17057 20782 ft 353 kts 271°
2026-05-07 10:32 43.68484 40.13707 20380 ft 354 kts 250°
2026-05-07 10:32 43.67267 40.10836 20093 ft 350 kts 227°
2026-05-07 10:32 43.65447 40.08727 20114 ft 340 kts 208°
2026-05-07 10:32 43.63279 40.07294 20167 ft 352 kts 203°
2026-05-07 10:33 43.61010 40.05907 20166 ft 360 kts 203°
2026-05-07 10:33 43.58719 40.04495 20149 ft 359 kts 203°
2026-05-07 10:33 43.56437 40.03080 19922 ft 361 kts 204°
2026-05-07 10:33 43.54145 40.01650 19701 ft 361 kts 204°
2026-05-07 10:34 43.51865 40.00224 19462 ft 358 kts 204°
2026-05-07 10:34 43.49610 39.98813 19217 ft 354 kts 204°
2026-05-07 10:34 43.47374 39.97416 18985 ft 351 kts 204°
2026-05-07 10:34 43.45150 39.96044 18743 ft 349 kts 201°
2026-05-07 10:35 43.42910 39.94899 18504 ft 346 kts 198°
2026-05-07 10:35 43.40633 39.93872 18235 ft 344 kts 197°
2026-05-07 10:35 43.38355 39.92878 17991 ft 342 kts 197°
2026-05-07 10:35 43.36098 39.91890 17751 ft 340 kts 197°
2026-05-07 10:36 43.33846 39.90893 17516 ft 339 kts 197°
2026-05-07 10:36 43.31611 39.89893 17291 ft 338 kts 197°
2026-05-07 10:36 43.29379 39.88888 17062 ft 338 kts 198°
2026-05-07 10:36 43.27139 39.87875 16831 ft 339 kts 198°
2026-05-07 10:37 43.24901 39.86862 16611 ft 340 kts 198°
2026-05-07 10:37 43.22649 39.85841 16368 ft 341 kts 198°
2026-05-07 10:37 43.20394 39.84820 16131 ft 341 kts 198°
2026-05-07 10:37 43.18177 39.83816 15908 ft 340 kts 198°
2026-05-07 10:38 43.15924 39.82796 15672 ft 340 kts 198°
2026-05-07 10:38 43.13682 39.81782 15441 ft 339 kts 198°
2026-05-07 10:38 43.11446 39.80772 15215 ft 338 kts 198°
2026-05-07 10:38 43.09204 39.79759 14979 ft 337 kts 198°
2026-05-07 10:39 43.06979 39.78755 14734 ft 336 kts 198°
2026-05-07 10:39 43.04770 39.77760 14600 ft 331 kts 198°
2026-05-07 10:39 43.02657 39.76657 14528 ft 320 kts 211°
2026-05-07 10:39 43.01070 39.74637 14441 ft 306 kts 238°
2026-05-07 10:40 43.00269 39.72033 14367 ft 292 kts 262°
2026-05-07 10:40 43.00285 39.69356 14322 ft 274 kts 285°
2026-05-07 10:40 43.00969 39.67040 14164 ft 257 kts 305°
2026-05-07 10:40 43.02162 39.65245 13640 ft 254 kts 325°
2026-05-07 10:41 43.03683 39.64130 13122 ft 250 kts 343°
2026-05-07 10:41 43.05318 39.63753 12623 ft 248 kts 359°
2026-05-07 10:41 43.07041 39.63982 12112 ft 247 kts 14°
2026-05-07 10:41 43.08595 39.64947 11606 ft 246 kts 32°
2026-05-07 10:42 43.10029 39.66249 11033 ft 249 kts 33°
2026-05-07 10:42 43.11468 39.67588 10445 ft 251 kts 33°
2026-05-07 10:42 43.12919 39.68945 9844 ft 253 kts 33°
2026-05-07 10:42 43.14377 39.70310 9214 ft 254 kts 33°
2026-05-07 10:43 43.15349 39.71220 8798 ft 255 kts 33°
2026-05-07 10:43 43.16814 39.72591 8225 ft 254 kts 33°
2026-05-07 10:43 43.18220 39.73908 8128 ft 235 kts 34°
2026-05-07 10:43 43.19522 39.75127 8049 ft 218 kts 34°
2026-05-07 10:44 43.20722 39.76252 7976 ft 201 kts 34°
2026-05-07 10:44 43.21855 39.77313 7889 ft 195 kts 34°
2026-05-07 10:44 43.22981 39.78368 7370 ft 198 kts 34°
2026-05-07 10:44 43.24118 39.79434 6838 ft 198 kts 34°
2026-05-07 10:45 43.25254 39.80499 6330 ft 197 kts 34°
2026-05-07 10:45 43.26381 39.81556 5819 ft 196 kts 34°
2026-05-07 10:45 43.27518 39.82573 5312 ft 194 kts 30°
2026-05-07 10:45 43.28703 39.83458 4809 ft 193 kts 28°
2026-05-07 10:46 43.29885 39.84327 4298 ft 192 kts 28°
2026-05-07 10:46 43.31056 39.85204 3791 ft 191 kts 32°
2026-05-07 10:46 43.31896 39.86541 3375 ft 185 kts 71°
2026-05-07 10:46 43.31923 39.88236 2985 ft 178 kts 108°
2026-05-07 10:47 43.31211 39.89558 2560 ft 174 kts 149°
2026-05-07 10:47 43.30076 39.89885 2238 ft 167 kts 191°
2026-05-07 10:47 43.29147 39.89044 2051 ft 165 kts 238°
2026-05-07 10:47 43.28950 39.87532 2032 ft 166 kts 284°
2026-05-07 10:48 43.29485 39.86156 2034 ft 166 kts 316°
2026-05-07 10:48 43.30523 39.85554 2002 ft 166 kts
2026-05-07 10:48 43.31593 39.86074 2021 ft 166 kts 31°
2026-05-07 10:48 43.32623 39.86777 2111 ft 166 kts 20°
2026-05-07 10:49 43.33719 39.87316 2108 ft 171 kts 21°
2026-05-07 10:49 43.34807 39.87966 1905 ft 165 kts 27°
2026-05-07 10:49 43.35774 39.88692 1696 ft 154 kts 28°
2026-05-07 10:49 43.36699 39.89393 1504 ft 152 kts 28°
2026-05-07 10:50 43.37633 39.90097 1320 ft 155 kts 27°
2026-05-07 10:50 43.38583 39.90812 1118 ft 155 kts 27°
2026-05-07 10:50 43.39522 39.91519 927 ft 153 kts 27°
2026-05-07 10:50 43.40406 39.92184 758 ft 151 kts 27°
2026-05-07 10:51 43.41335 39.92882 579 ft 153 kts 26°
2026-05-07 10:51 43.42277 39.93590 381 ft 154 kts 27°
2026-05-07 10:51 43.43214 39.94301 128 ft 153 kts 27°
2026-05-07 10:51 43.44104 39.94966 78 ft 127 kts 26°
2026-05-07 10:52 43.44711 39.95422 85 ft 60 kts 28°
2026-05-07 10:52 43.44877 39.95547 88 ft 16 kts 27°
2026-05-07 10:52 43.44966 39.95572 88 ft 12 kts 336°
2026-05-07 10:52 43.45041 39.95524 90 ft 12 kts 335°
2026-05-07 10:53 43.45086 39.95455 92 ft 10 kts 290°
2026-05-07 10:53 43.45092 39.95356 90 ft 12 kts 249°
2026-05-07 10:53 43.45048 39.95226 88 ft 19 kts 244°
2026-05-07 10:53 43.44978 39.95061 82 ft 21 kts 230°
2026-05-07 10:54 43.44909 39.94881 74 ft 22 kts 245°
2026-05-07 10:54 43.44844 39.94691 69 ft 22 kts 245°
2026-05-07 10:54 43.44782 39.94507 72 ft 20 kts 245°
2026-05-07 10:54 43.44759 39.94405 73 ft 4 kts 329°
2026-05-07 10:55 43.44782 39.94395 70 ft 3 kts 329°
2026-05-07 10:55 43.44802 39.94381 70 ft 4 kts 334°
2026-05-07 10:55 43.44817 39.94371 70 ft 0 kts 335°